This is the latest recevied weather packets stored in our database for station/object K3HW. If no packets are shown the sender has not sent any weather packets the latest 10 day(s).
| Time | Temp. | Humidity | Pressure | Rain* | Wind** | Luminosity | Snow |
|---|---|---|---|---|---|---|---|
| 1777638711 | 8.89° C | 72% | 1017.7 hPa | 0 mm | - | 32 W/m² | - |
| 1777638408 | 8.89° C | 71% | 1017.8 hPa | 0 mm | - | 32 W/m² | - |
| 1777638104 | 9.44° C | 71% | 1017.6 hPa | 0 mm | - | 31 W/m² | - |
| 1777637800 | 9.44° C | 72% | 1017.9 hPa | 0 mm | - | 31 W/m² | - |
| 1777637497 | 8.89° C | 73% | 1017.8 hPa | 0 mm | - | 41 W/m² | - |
| 1777637194 | 8.89° C | 74% | 1017.7 hPa | 0 mm | - | 30 W/m² | - |
| 1777636892 | 8.89° C | 74% | 1017.8 hPa | 0 mm | - | 29 W/m² | - |
| 1777636587 | 8.89° C | 75% | 1017.8 hPa | 0 mm | - | 31 W/m² | - |
| 1777636283 | 8.33° C | 76% | 1017.7 hPa | 0 mm | - | 28 W/m² | - |
| 1777635679 | 7.78° C | 78% | 1017.9 hPa | 0 mm | - | 26 W/m² | - |
| 1777635376 | 7.78° C | 80% | 1017.6 hPa | 0 mm | - | 25 W/m² | - |
| 1777635073 | 7.22° C | 81% | 1017.8 hPa | 0 mm | - | 24 W/m² | - |
| 1777634769 | 6.67° C | 83% | 1017.6 hPa | 0 mm | - | 23 W/m² | - |
| 1777634466 | 6.67° C | 86% | 1017.8 hPa | 0 mm | - | 28 W/m² | - |
| 1777634163 | 6.11° C | 89% | 1017.6 hPa | 0 mm | - | 21 W/m² | - |
| 1777633860 | 5.56° C | 90% | 1017.4 hPa | 0 mm | - | 19 W/m² | - |
| 1777633558 | 5.56° C | 90% | 1017.6 hPa | 0 mm | - | 18 W/m² | - |
| 1777633255 | 5° C | 90% | 1017.5 hPa | 0 mm | - | 18 W/m² | - |
| 1777632952 | 5° C | 90% | 1017.5 hPa | 0 mm | - | 18 W/m² | - |
| 1777632345 | 3.89° C | 90% | 1017.6 hPa | 0 mm | - | 13 W/m² | - |
| 1777632042 | 3.89° C | 90% | 1017.6 hPa | 0 mm | - | 11 W/m² | - |
| 1777631740 | 3.89° C | 90% | 1017.5 hPa | 0 mm | - | 10 W/m² | - |
| 1777631438 | 3.89° C | 89% | 1017.5 hPa | 0 mm | - | 8 W/m² | - |
| 1777631134 | 3.89° C | 89% | 1017.5 hPa | 0 mm | - | 7 W/m² | - |
| 1777630832 | 3.89° C | 89% | 1017.5 hPa | 0 mm | - | 5 W/m² | - |
* Rain latest hour (hover to see other rain measurements)
** Current wind speed in m/s (hover to see current wind gust speed)